Topeka, KS

6:05 PM CST on February 23, 2017 (GMT -0600)
Billard Municipal

Weather History for KTOP - September, 2014

Change the Weather History Date:

Saturday, September 20, 2014

  Actual Average Record
Temperature  
Mean Temperature 77 °F 66 °F  
Max Temperature 90 °F 79 °F 98 °F (1980)
Min Temperature 64 °F 54 °F 36 °F (1991)
Degree Days  
Heating Degree Days 0 3  
Month to date heating degree days 46 24  
Since 1 July heating degree days 46 26  
Cooling Degree Days 12 4  
Month to date cooling degree days 127 133  
Year to date cooling degree days 1537 1361  
Growing Degree Days 28 (Base 50)    
Moisture  
Dew Point 69 °F    
Average Humidity 75    
Maximum Humidity 100    
Minimum Humidity 50    
Precipitation  
Precipitation 0.03 in 0.13 in 2.09 in (1965)
Month to date precipitation 4.10 2.45  
Year to date precipitation 23.94 29.02  
Snow  
Snow 0.00 in 0.00 in 0.00 in ()
Month to date snowfall 0.0 0.0  
Year to date snowfall 23.1 11.3  
Since 1 July snowfall T 0.0  
Snow Depth 0.00 in    
Sea Level Pressure  
Sea Level Pressure 29.95 in    
Wind  
Wind Speed 6 mph (SW)    
Max Wind Speed 17 mph    
Max Gust Speed 24 mph    
Visibility 6 miles    
Events Rain    
T = Trace of Precipitation, MM = Missing Value Source: NWS Daily Summary

Daily Weather History Graph

Daily Weather History Graph

Search for Another Location

Airport or City:

Trip Planner

Search our weather history database for the weather conditions in past years. The results will help you decide how hot, cold, wet, or windy it might be!

Date:

Astronomy

Sep. 20, 2014 Rise Set
Actual Time 7:08 AM CDT 7:22 PM CDT
Civil Twilight 6:41 AM CDT 7:49 PM CDT
Nautical Twilight 6:10 AM CDT 8:20 PM CDT
Astronomical Twilight 5:38 AM CDT 8:52 PM CDT
Moon 3:49 AM CDT (9/20) 5:25 PM CDT (9/20)
Length of Visible Light 13h 07m
Length of Day
12h 14m
Waning Crescent, 11% of the Moon is Illuminated
Sep 20
Waning Crescent
Sep 24
New
Oct 1
First Quarter
Oct 8
Full
Oct 15
Last Quarter

Hourly Weather History & Observations

Time (CDT) Temp. Heat Index Dew Point Humidity Pressure Visibility Wind Dir Wind Speed Gust Speed Precip Events Conditions
12:53 AM 71.1 °F - 68.0 °F 90% 29.91 in 6.0 mi South 9.2 mph - N/A   Clear
1:53 AM 70.0 °F - 68.0 °F 93% 29.91 in 6.0 mi South 11.5 mph - N/A   Clear
2:53 AM 70.0 °F - 68.0 °F 93% 29.90 in 5.0 mi SSW 10.4 mph - N/A   Clear
3:53 AM 70.0 °F - 69.1 °F 97% 29.91 in 5.0 mi SSW 9.2 mph - N/A   Clear
4:53 AM 70.0 °F - 68.0 °F 93% 29.90 in 5.0 mi SSW 6.9 mph - N/A   Clear
5:53 AM 70.0 °F - 68.0 °F 93% 29.91 in 6.0 mi SSW 5.8 mph - N/A   Clear
6:16 AM 70.0 °F - 68.0 °F 93% 29.93 in 5.0 mi Variable 3.5 mph - N/A   Partly Cloudy
6:51 AM 69.8 °F - 68.0 °F 94% 29.95 in 5.0 mi Calm Calm - N/A   Mostly Cloudy
6:53 AM 69.1 °F - 68.0 °F 96% 29.93 in 5.0 mi Calm Calm - N/A   Scattered Clouds
7:38 AM 66.9 °F - 66.9 °F 100% 29.98 in 2.0 mi Calm Calm - N/A   Clear
7:53 AM 68.0 °F - 66.0 °F 93% 29.96 in 2.0 mi Calm Calm - N/A   Clear
8:18 AM 71.1 °F - 69.1 °F 93% 29.99 in 3.0 mi Calm Calm - N/A   Clear
8:53 AM 73.0 °F - 70.0 °F 90% 29.96 in 6.0 mi Variable 4.6 mph - N/A   Clear
9:53 AM 78.1 °F - 71.1 °F 79% 29.96 in 9.0 mi SSW 10.4 mph - N/A   Clear
10:53 AM 81.0 °F 84.9 °F 71.1 °F 72% 29.95 in 10.0 mi SW 9.2 mph - N/A   Clear
11:53 AM 84.0 °F 88.4 °F 70.0 °F 63% 29.96 in 10.0 mi SSW 12.7 mph - N/A   Clear
12:53 PM 86.0 °F 90.7 °F 70.0 °F 59% 29.94 in 10.0 mi SW 9.2 mph - N/A   Clear
1:53 PM 87.1 °F 91.3 °F 69.1 °F 55% 29.94 in 10.0 mi SW 6.9 mph - N/A   Partly Cloudy
2:53 PM 88.0 °F 90.7 °F 66.9 °F 49% 29.88 in 10.0 mi SSW 13.8 mph - N/A   Clear
3:53 PM 84.9 °F 87.6 °F 66.9 °F 55% 29.91 in 10.0 mi SW 5.8 mph - N/A   Clear
4:53 PM 75.0 °F - 73.0 °F 94% 29.93 in 6.0 mi Calm Calm - 0.02 in Rain Light Rain
5:53 PM 75.0 °F - 72.0 °F 90% 29.91 in 10.0 mi Calm Calm - 0.01 in   Partly Cloudy
6:53 PM 75.9 °F - 73.0 °F 91% 29.91 in 10.0 mi Calm Calm - N/A   Clear
7:53 PM 73.0 °F - 72.0 °F 96% 29.93 in 9.0 mi WNW 3.5 mph - N/A   Clear
8:53 PM 70.0 °F - 69.1 °F 97% 29.95 in 9.0 mi Calm Calm - N/A   Clear
9:34 PM 66.9 °F - 66.9 °F 100% 29.99 in 1.8 mi Calm Calm - N/A   Clear
9:38 PM 68.0 °F - 66.9 °F 96% 29.99 in 3.0 mi Calm Calm - N/A   Clear
9:53 PM 69.1 °F - 68.0 °F 96% 29.97 in 4.0 mi SSW 3.5 mph - N/A   Clear
10:34 PM 69.1 °F - 68.0 °F 96% 30.00 in 2.0 mi Calm Calm - N/A   Clear
10:43 PM 68.0 °F - 68.0 °F 100% 30.00 in 4.0 mi Calm Calm - N/A   Clear
10:46 PM 68.0 °F - 68.0 °F 100% 30.00 in 1.8 mi Calm Calm - N/A   Clear
10:53 PM 68.0 °F - 66.9 °F 96% 29.98 in 1.8 mi WSW 3.5 mph - N/A   Clear
10:55 PM 68.0 °F - 66.9 °F 96% 30.01 in 3.0 mi Calm Calm - N/A   Clear
11:15 PM 66.2 °F - 66.2 °F 100% 30.01 in 1.8 mi Calm Calm - N/A   Partly Cloudy
11:24 PM 66.9 °F - 66.0 °F 97% 30.01 in 4.0 mi West 3.5 mph - N/A   Clear
11:47 PM 66.2 °F - 66.2 °F 100% 30.01 in 1.5 mi Calm Calm - N/A   Clear